Dewpoint
12 12 13 15 15 14 13 13 15 15 13 12 11 11 12 12 12 12 12 12 12 12 12 12 12 13 13 14 14 14 13 13 13 16 18 18 17 16 15 15 14 14 14 15 15 15 15 15 15 15 15 16 16 16 16 16 16 16 16 16 16 16 16 16 17 17 17 17 17
12 12 14 17 18 16 15 14 16 16 15 13 12 12 12 12 12 12 12 12 12 12 12 12 13 13 13 14 16 15 14 14 14 15 17 17 16 15 15 15 14 14 14 14 14 14 14 14 14 15 15 15 16 16 16 16 16 16 16 15 16 16 17 17 17 17 17 17 17
12 12 13 15 16 15 14 14 14 15 15 14 13 12 12 12 12 12 12 12 12 12 12 12 13 14 14 13 14 15 14 14 13 13 14 14 14 13 13 13 13 14 15 16 15 15 15 14 15 16 17 16 16 16 16 16 17 16 16 16 16 16 17 17 17 17 17 17 17
11 11 12 13 14 14 14 13 13 14 14 15 14 13 12 12 12 12 12 12 12 12 12 12 13 14 15 14 14 14 14 17 16 15 14 13 13 13 13 13 13 13 14 14 14 14 14 14 15 16 16 16 16 16 16 16 16 16 16 16 16 17 17 17 17 17 17 17 17
11 11 11 12 13 14 14 13 13 13 14 15 14 14 13 13 13 12 12 13 13 13 12 12 12 13 14 15 15 14 14 16 20 19 17 16 15 15 14 13 14 14 14 14 14 14 14 13 14 15 16 16 16 16 16 16 16 16 16 16 17 17 17 17 17 17 17 17 18
11 11 11 11 12 13 13 13 13 13 13 14 14 14 14 13 13 13 13 12 13 13 14 15 15 16 17 16 15 15 14 14 17 17 16 16 16 15 14 13 13 14 14 14 13 14 14 13 15 16 16 16 17 17 16 16 16 16 17 17 17 17 17 17 17 17 18 18 18
11 10 10 10 11 12 13 13 13 13 13 14 14 14 14 13 13 13 13 13 13 13 15 18 18 18 18 17 17 16 16 16 15 15 14 15 15 15 14 14 13 13 13 14 14 14 15 14 16 17 17 19 18 18 17 17 17 17 17 17 17 17 17 18 18 18 18 18 18
11 11 11 10 11 12 12 13 13 13 13 13 13 13 13 13 13 13 13 13 13 13 15 17 17 17 17 17 17 17 16 15 15 15 14 15 14 14 13 13 13 13 13 14 14 15 15 15 16 17 17 17 17 17 17 16 16 16 17 17 17 17 17 18 19 19 19 19 19
11 11 11 11 11 11 12 12 13 13 13 13 13 13 13 12 12 12 12 12 13 14 15 16 16 16 16 16 16 16 16 16 16 15 15 15 14 14 14 13 14 14 14 15 15 15 15 16 17 17 17 17 17 17 17 16 16 16 16 17 17 17 17 18 19 19 19 19 19
11 11 11 11 11 11 12 12 12 13 13 12 12 12 13 16 15 13 12 12 14 15 15 15 15 15 15 15 15 15 16 16 16 15 15 15 16 15 14 15 15 15 16 16 16 15 15 15 17 17 17 17 17 17 17 17 16 16 16 17 17 17 17 18 18 19 19 20 20
11 11 11 11 11 12 12 12 12 13 13 12 12 12 13 17 17 15 13 14 14 15 15 15 15 15 15 15 16 16 16 16 16 15 15 15 16 16 16 16 15 16 16 16 16 16 16 17 17 17 17 17 17 17 17 17 17 16 17 17 17 17 17 18 18 19 19 20 20
11 11 11 11 11 12 12 12 12 12 12 12 12 12 12 13 15 16 16 16 15 15 15 16 16 16 16 16 16 17 17 16 16 15 15 15 15 15 15 16 16 15 15 16 15 16 17 17 17 17 17 17 17 17 17 17 17 17 17 17 17 17 17 18 19 19 20 20 20
11 11 11 11 11 11 12 12 12 12 12 12 12 12 12 12 14 16 17 16 16 16 16 17 17 17 17 17 16 17 17 16 16 16 16 16 16 16 16 16 16 16 16 16 16 16 17 17 16 16 16 17 17 18 17 17 17 17 17 17 17 17 17 18 19 19 20 20 20
11 11 11 11 11 11 11 12 12 12 11 12 12 12 12 12 14 16 17 16 16 16 17 17 18 18 17 17 17 16 16 16 16 16 16 17 17 16 16 16 16 16 16 17 16 16 16 17 16 16 17 17 17 17 17 17 17 17 17 17 17 17 17 18 19 19 20 20 20
11 11 11 11 10 11 11 12 12 12 12 12 12 12 12 12 14 16 17 16 16 16 16 17 17 18 19 18 17 17 16 16 16 16 16 17 17 17 17 17 16 16 16 17 17 16 16 16 16 16 17 17 17 17 17 17 17 17 17 17 17 17 18 18 19 19 20 20 20
11 11 11 11 10 11 11 11 12 12 12 12 12 12 12 12 14 16 17 16 16 16 16 16 16 17 17 19 18 17 17 16 16 16 16 17 17 17 17 17 17 17 16 16 17 17 17 17 17 17 17 17 17 17 17 17 17 17 17 17 17 17 18 19 19 20 20 21 21
11 11 11 10 10 11 11 12 12 12 12 12 12 12 12 13 13 16 17 18 17 16 16 16 16 16 17 18 19 18 17 17 17 17 17 17 17 17 17 17 17 17 17 16 17 17 17 17 17 17 17 17 17 17 17 17 17 17 17 17 17 17 18 19 20 21 21 21 21
11 11 11 11 11 12 12 12 12 12 12 12 12 12 13 13 13 15 17 19 17 17 16 16 16 16 16 17 18 19 19 18 17 17 17 17 17 17 17 17 17 17 17 17 17 17 17 17 17 17 17 17 17 17 17 17 17 17 17 17 17 18 18 19 20 21 21 21 22
11 11 12 12 12 12 13 14 13 13 12 12 12 12 13 13 14 14 15 17 18 18 17 17 17 17 17 17 17 18 20 19 18 18 18 18 17 17 17 17 17 17 17 17 17 17 17 17 17 17 17 17 17 18 18 18 18 18 18 18 18 19 19 20 21 21 22 22 23
12 12 12 12 13 13 14 14 14 13 13 12 12 12 13 13 14 14 14 15 17 18 18 17 17 17 17 17 17 17 19 20 18 18 17 18 17 17 17 17 17 17 17 16 17 17 17 17 17 17 17 17 17 18 18 18 18 18 18 19 19 20 21 21 22 22 23 23 23
13 13 13 13 13 14 14 14 14 13 13 12 12 13 13 14 14 14 14 15 16 17 18 18 18 18 18 17 17 17 17 19 18 18 18 18 18 18 18 18 18 17 17 17 17 17 17 17 17 17 17 17 18 18 18 18 18 19 19 20 21 22 22 23 23 24 24 24 24
14 14 14 14 14 14 14 14 14 13 13 12 13 13 13 14 14 14 15 15 16 17 17 17 18 18 18 18 18 17 18 19 18 18 18 18 18 19 19 19 18 18 17 17 17 17 16 17 17 17 17 17 17 18 18 19 20 21 21 22 23 23 24 24 25 25 25 25 25
15 15 15 15 15 15 15 15 13 13 12 13 13 13 13 14 14 14 15 15 16 17 17 17 17 18 18 18 18 18 18 18 18 18 18 18 18 18 18 19 18 17 17 17 17 17 16 16 16 16 17 17 17 18 19 20 21 23 24 25 26 26 26 26 26 26 25 24 23
16 16 16 16 15 15 15 15 13 13 13 13 13 13 14 14 14 15 15 16 16 17 17 17 18 18 18 18 18 18 18 18 17 17 17 17 17 18 18 18 17 17 17 18 19 19 20 20 20 21 21 21 22 23 24 25 26 28 29 29 29 28 27 26 25 23 22 21 21
16 16 16 15 14 14 14 14 13 13 13 13 13 14 14 14 14 15 15 16 16 17 17 18 18 18 18 18 18 18 18 17 17 17 17 17 17 17 17 18 18 18 19 21 24 27 28 28 27 27 27 28 28 28 28 28 29 30 30 30 29 28 26 24 22 21 20 20 20
16 16 15 15 14 14 14 14 13 13 13 14 14 14 14 15 15 15 16 16 17 17 17 18 18 19 19 19 18 18 18 17 17 17 17 17 17 17 18 18 19 19 20 23 26 29 30 30 30 30 30 30 30 29 29 29 30 30 30 30 28 26 23 22 21 20 20 21 20
15 15 14 14 13 13 12 13 13 13 13 13 14 14 14 15 15 15 16 17 17 17 18 18 18 20 21 20 19 19 18 18 18 17 17 17 17 17 18 18 19 19 21 25 28 29 30 30 31 31 31 31 30 30 29 30 30 30 29 28 26 23 21 20 20 20 20 21 20
14 14 13 13 12 12 12 12 12 12 13 13 13 14 14 15 15 16 16 17 17 18 18 18 19 19 20 20 19 19 19 18 18 18 17 17 17 17 18 18 19 20 23 27 29 30 30 30 31 31 31 31 30 30 30 31 30 29 27 25 23 21 20 19 19 19 19 19 19
13 13 13 12 12 12 11 11 12 12 12 13 13 14 14 15 15 16 16 17 17 18 18 18 19 19 18 18 18 18 18 18 18 18 18 17 17 17 18 18 18 21 24 28 30 30 30 30 30 31 31 31 31 31 31 31 30 27 26 23 21 21 20 19 19 19 19 18 19
13 13 12 12 12 11 11 11 12 12 12 13 13 14 14 15 16 16 17 17 17 18 18 18 18 18 18 17 17 17 17 17 17 17 17 17 17 17 18 19 19 21 24 28 29 30 30 30 30 31 31 32 32 31 31 30 28 26 24 23 21 20 19 19 18 17 18 18 18
13 12 12 12 12 12 11 11 12 12 12 13 14 14 15 15 16 16 17 17 17 18 19 19 18 18 17 17 17 17 17 17 17 17 17 17 18 19 19 19 19 21 24 28 29 30 30 30 30 31 31 32 32 31 30 29 27 25 23 23 21 21 20 19 17 17 17 17 17
14 12 12 12 12 12 12 12 12 12 13 14 14 15 15 15 16 16 17 17 17 18 19 19 18 18 17 17 17 16 17 17 17 17 17 17 18 18 18 19 19 21 24 28 29 30 30 30 30 31 31 32 32 31 30 28 26 24 23 22 21 20 19 19 18 17 17 17 17
14 13 12 12 12 12 12 12 12 13 13 14 15 15 15 15 16 17 17 17 18 18 18 18 18 17 17 16 16 16 17 17 18 19 20 20 19 19 19 20 19 22 26 28 29 30 30 30 30 31 31 31 32 30 29 27 26 24 23 22 21 20 18 17 17 18 17 17 17
15 13 12 12 12 12 12 12 13 13 14 14 15 15 15 16 16 17 17 18 17 17 17 17 17 17 17 16 16 16 17 18 18 19 19 19 19 19 19 19 19 22 26 28 29 29 30 30 30 30 31 31 31 29 27 26 26 25 24 23 21 19 18 17 17 17 17 16 17
16 13 12 12 12 12 12 12 13 13 14 14 15 15 16 16 16 17 17 18 18 17 17 17 16 16 16 16 16 16 17 18 18 18 18 18 18 18 18 18 18 22 26 28 29 29 29 30 30 30 30 31 30 28 26 26 26 25 24 22 21 19 17 17 17 17 16 15 16
16 14 13 12 12 12 12 13 13 13 14 14 15 15 16 16 16 17 17 18 18 17 16 16 15 15 15 15 16 17 18 18 18 18 19 19 18 17 17 17 18 21 25 28 28 29 29 29 30 30 30 30 29 27 26 26 26 25 23 21 20 18 18 17 17 17 16 15 15
16 14 13 12 12 12 12 13 13 13 14 14 15 15 16 16 16 16 17 18 17 16 16 15 15 14 15 15 16 17 17 17 18 18 19 20 20 19 18 18 17 20 23 27 28 29 29 29 30 30 30 30 28 27 26 26 26 24 21 20 19 18 17 18 17 17 16 15 16
17 15 14 13 12 12 13 13 13 14 14 14 15 15 15 16 16 16 17 18 16 15 15 15 14 14 14 15 16 17 17 18 19 19 19 19 19 19 18 18 18 19 22 26 27 28 29 29 29 30 29 29 28 27 27 27 25 23 21 20 19 18 17 18 18 17 17 15 21
17 16 15 14 13 13 13 13 14 14 14 14 15 15 15 15 15 16 16 17 16 15 15 14 14 14 14 16 16 17 17 18 19 20 20 19 19 20 21 20 19 20 22 26 27 28 28 29 29 29 29 29 28 27 27 27 24 22 21 21 20 19 18 18 17 17 17 16 24
17 17 15 14 13 13 13 14 14 14 14 15 15 14 15 15 15 16 16 16 15 15 15 14 13 13 15 17 17 17 17 18 18 19 20 20 20 22 23 22 21 21 23 26 27 28 28 28 28 29 29 30 28 27 26 26 23 22 21 21 21 20 19 17 17 17 17 16 21
17 16 15 15 14 14 14 14 14 14 15 15 15 15 15 16 16 15 15 14 15 15 14 13 13 13 15 17 17 17 18 18 18 18 19 21 21 22 23 23 21 21 21 23 26 27 28 28 28 29 29 30 28 27 26 25 23 22 22 23 23 22 21 18 17 17 17 16 17